Regional Weather Roundup
Issued by NWS Jackson, KY

Home | Current Version | Previous Version | Graphics & Text | Print | Product List | Glossary On
Versions: 1 2 3 4 5 6 7 8 9 10 11 12 13 14 15 16 17 18 19 20 21 22 23 24 25 26 27 28 29 30 31 32 33 34 35 36 37 38 39 40 41 42 43 44 45 46 47 48 49 50
000
ASUS43 KJKL 190910
RWRJKL

EAST KENTUCKY HOURLY WEATHER ROUNDUP
NATIONAL WEATHER SERVICE JACKSON KY
500 AM EDT SUN APR 19 2015

NOTE: "FAIR" INDICATES FEW OR NO CLOUDS BELOW 12,000 FEET WITH
NO SIGNIFICANT WEATHER AND/OR OBSTRUCTIONS TO VISIBILITY.

* THESE REPORTS ARE NOT UNDER NWS QUALITY CONTROL AND MAY NOT
  REPORT WEATHER SUCH AS PRECIPITATION AND FOG.

KYZ079-080-083-085-087-088-110-112-115-119-120-191000
...EASTERN KENTUCKY...

CITY           SKY/WX    TMP DP  RH WIND       PRES   REMARKS
JACKSON        CLOUDY    65  45  48 E5        29.88F
LONDON         CLOUDY    65  56  72 CALM      29.86F
SOMERSET*      DRIZZLE   61  61 100 CALM      29.85F
MONTICELLO*    CLOUDY    65  63  93 NE5       29.86F
MIDDLESBORO*   CLOUDY    61  60  96 CALM      29.87F
HARLAN APT*    CLOUDY    64  54  68 SE3       29.89F
HAZARD APT*    PTSUNNY   63  50  63 CALM      29.88F
BLACK MTN*       N/A     57  54  88 SE7         N/A
PIKEVILLE APT* MOCLDY    66  54  63 SE5       29.90F
BIG SANDY*     CLOUDY    64  50  61 E5        29.90S
MOREHEAD APT*  CLOUDY    66  43  42 E7G16     29.89F
$$

KYZ035-036-041-042-044-050-067-078-099-191000
...CENTRAL KENTUCKY...

CITY           SKY/WX    TMP DP  RH WIND       PRES   REMARKS
MT STERLING*   CLOUDY    64  46  52 E8        29.87F
FLEMING/MASON* MOCLDY    61  45  55 E10       29.88F
DANVILLE*      CLOUDY    61  52  72 CALM      29.85F
RICHMOND*      CLOUDY    64  48  55 SE3       29.85F
LEXINGTON      CLOUDY    65  46  50 E7        29.85F
FRANKFORT      CLOUDY    64  46  52 E8        29.83F
$$

KYZ091>093-OHZ055-061-077-WVZ005-015-034-035-042-191000
...SOUTHERN OHIO/WEST VIRGINIA...

CITY           SKY/WX    TMP DP  RH WIND       PRES   REMARKS
COVINGTON      CLOUDY    64  45  49 E13       29.86F
COLUMBUS       MOCLDY    59  39  47 E9        29.94F
DAYTON         CLOUDY    58  41  53 E12       29.92F
WILMINGTON     MOCLDY    55  45  68 NE12      29.90F
HUNTINGTON     CLOUDY    62  44  51 E6        29.90S
CHARLESTON     PTCLDY    57  48  72 CALM      29.93S
PINEVILLE*     MOCLDY    56  54  91 MISG      30.01S
BECKLEY        MOCLDY    62  50  64 SE9       30.00S
BLUEFIELD      CLOUDY    64  55  72 E8        30.00F
$$

VAZ002-007-008-TNZ017-027-036-066-071-191000
...SOUTHWEST VIRGINIA/EAST TENNESSEE...

CITY           SKY/WX    TMP DP  RH WIND       PRES   REMARKS
WISE*          CLOUDY    63  52  67 CALM      29.96F
JONESVILLE*    CLOUDY    63  57  82 E3        29.92S
ABINGDON*      CLOUDY    66  58  73 E9        29.95S
BRISTOL        CLOUDY    61  58  90 CALM      29.91F
KNOXVILLE      LGT RAIN  63  63 100 CALM      29.84F FOG
OAK RIDGE      CLOUDY    65  62  90 CALM      29.86F
CROSSVILLE     CLOUDY    64  60  87 S5        29.86F
NASHVILLE      LGT RAIN  65  63  93 SE3       29.77F
$$

...KEY TO REMARKS...
VSB - VISIBILITY IN MILES
WCI - WIND CHILL INDEX
HX  - HEAT INDEX

$$


USA.gov is the U.S. government's official web portal to all federal, state and local government web resources and services.